Regional Weather Roundup
Issued by NWS

Home | Current Version | Previous Version | Graphics & Text | Print | Product List | Glossary On
Versions: 1 2 3 4 5 6 7 8 9 10 11 12 13 14 15 16 17 18 19 20 21 22 23 24 25 26 27 28 29 30 31 32 33 34 35 36 37 38 39 40 41 42 43 44 45 46 47 48 49 50
000
ASUS43 KLOT 261158
RWRIL

ILLINOIS REGIONAL WEATHER ROUNDUP
NATIONAL WEATHER SERVICE CHICAGO/ROMEOVILLE IL
600 AM CST FRI DEC 26 2014

NOTE: "FAIR" INDICATES FEW OR NO CLOUDS BELOW 12,000 FEET WITH NO
SIGNIFICANT WEATHER AND/OR OBSTRUCTIONS TO VISIBILITY.

* THESE STATIONS ARE NOT UNDER NWS QUALITY CONTROL. THEY ALSO MAY NOT
  REPORT WEATHER SUCH AS PRECIPITATION OR FOG.

ILZ001-002-007-009-015-016-024-261300-
NORTHWEST ILLINOIS

CITY           SKY/WX    TMP DP  RH WIND       PRES   REMARKS
MOLINE         PTCLDY    41  33  73 S16G24    29.92R
6HR MIN TEMP:  41; 6HR MAX TEMP:  43;

$$

ILZ003-004-008-010-011-017-018-261300-
NORTH CENTRAL ILLINOIS

CITY           SKY/WX    TMP DP  RH WIND       PRES   REMARKS
ROCKFORD       NOT AVBL
$$

ILZ005-006-012>014-019>023-261300-
NORTHEAST ILLINOIS

CITY           SKY/WX    TMP DP  RH WIND       PRES   REMARKS
CHICAGO-OHARE  PTCLDY    37  32  82 S9        29.98S WCI  30
6HR MIN TEMP:  36; 6HR MAX TEMP:  39;

CHICAGO-MIDWAY PTCLDY    38  33  82 S9        30.00S WCI  31
6HR MIN TEMP:  38; 6HR MAX TEMP:  41;

AURORA         PTCLDY    33  29  85 S3        29.99S
6HR MIN TEMP:  33; 6HR MAX TEMP:  37;

WAUKEGAN       NOT AVBL
DUPAGE AIRPORT PTCLDY    33  30  88 S8        29.98S WCI  26
6HR MIN TEMP:  33; 6HR MAX TEMP:  38;

WHEELING       PTCLDY    37  32  82 S9        30.01R WCI  30
6HR MIN TEMP:  37; 6HR MAX TEMP:  39;

NORTHERLY ISL    N/A     38  32  79 W6          N/A  WCI  33
$$

LMZ740>746-261300-
SOUTHERN LAKE MICHIGAN

STATION/POSITION SKY/WX   TEMP    WIND        PRES    VSBY  WAVE
                          AIR SEA DIR/SP/G                  HT/PER
                          (F)     (DEG/KT/KT) (MB)    (MI)  (FT/S)
WAUKEGAN HARBOR            39                   N/A
HARRISON CRIB              38     200/ 25/ 30   N/A
BURNHAM HARBOR             38     190/  8/ 12   N/A
CALUMET HARBOR             37     190/  8/ 12 1015.1S
MICHIGAN CITY              37     160/ 18/ 25   N/A
$$

ILZ025>027-034>036-040-047-049-050-058-095>099-261300-
WEST-CENTRAL ILLINOIS

CITY           SKY/WX    TMP DP  RH WIND       PRES   REMARKS
$$

ILZ028>032-037-038-041>044-048-051>054-059>061-261300-
CENTRAL ILLINOIS

CITY           SKY/WX    TMP DP  RH WIND       PRES   REMARKS
PEORIA         NOT AVBL
SPRINGFIELD    CLEAR     40  34  79 S15       30.03R
6HR MIN TEMP:  40; 6HR MAX TEMP:  42;

TAYLORVILLE    NOT AVBL
$$

ILZ033-039-045-046-055>057-062-063-261300-
EAST-CENTRAL ILLINOIS

CITY           SKY/WX    TMP DP  RH WIND       PRES   REMARKS
CHAMPAIGN      CLEAR     36  32  85 S15       30.06S WCI  27
MATTOON        CLEAR     37  34  89 S13       30.09R WCI  29
$$

ILZ079-100>102-261300-
SOUTHWEST ILLINOIS

CITY           SKY/WX    TMP DP  RH WIND       PRES   REMARKS
CAHOKIA*       CLEAR     39  34  82 S7        30.07S WCI  34
$$

ILZ064>066-069>071-074>076-080>082-084>086-088>090-092>094-261300-
SOUTH-CENTRAL ILLINOIS

CITY           SKY/WX    TMP DP  RH WIND       PRES   REMARKS
CARBONDALE     CLEAR     37  32  82 S7        30.15R WCI  32
6HR MIN TEMP:  36; 6HR MAX TEMP:  44;

$$

ILZ067-068-072-073-078-083-087-091-261300-
SOUTHEAST ILLINOIS

CITY           SKY/WX    TMP DP  RH WIND       PRES   REMARKS
LAWRENCEVILLE  CLEAR     34  32  92 S8        30.17R WCI  27
$$

ABBREVIATIONS USED IN REMARKS
   TC - TEMPERATURE IN CELSIUS
  WCI - WIND CHILL INDEX
   HX - HEAT INDEX
  VSB - VISIBILITY
$$



USA.gov is the U.S. government's official web portal to all federal, state and local government web resources and services.